Zurück zum Katalog

SL-12 R/B(2)

AktivGEO
NORAD 20110·ROCKET BODY·🇷🇺 Russia

Gestartet Jul 5, 1989 von Baikonur Cosmodrome

Loading…

TLE

AktuellSource: Space-Track

Epoche: Sep 13, 2026, 17:35 UTC

1 20110U 89052D   26256.73288786 -.00000191  00000-0  00000-0 0  9990
2 20110  10.5407 327.9198 0034149 278.4389  75.6810  1.03061461139893

Verfolge SL-12 R/B(2) in Echtzeit mit AllMySat

Download on the App Store